This is the latest recevied weather packets stored in our database for station/object HB9TJM-8. If no packets are shown the sender has not sent any weather packets the latest 10 day(s).
| Time | Temp. | Humidity | Pressure | Rain* | Wind** | Luminosity | Snow |
|---|---|---|---|---|---|---|---|
| 1777445925 | 10° C | 85% | 1017.4 hPa | 0 mm | - | 130 W/m² | - |
| 1777445618 | 10° C | 86% | 1017.5 hPa | 0 mm | - | 120 W/m² | - |
| 1777445310 | 10° C | 87% | 1017.3 hPa | 0 mm | - | 111 W/m² | - |
| 1777444695 | 10° C | 89% | 1017.4 hPa | 0 mm | - | 111 W/m² | - |
| 1777444388 | 10° C | 88% | 1017.3 hPa | 0 mm | - | 109 W/m² | - |
| 1777444081 | 9.44° C | 88% | 1017.3 hPa | 0 mm | - | 100 W/m² | - |
| 1777443773 | 9.44° C | 87% | 1017 hPa | 0 mm | - | 93 W/m² | - |
| 1777443465 | 9.44° C | 88% | 1017.3 hPa | 0 mm | - | 90 W/m² | - |
| 1777443465 | 9.44° C | 88% | 1017.3 hPa | 0 mm | - | 90 W/m² | - |
| 1777443157 | 9.44° C | 89% | 1017 hPa | 0 mm | - | 80 W/m² | - |
| 1777442850 | 9.44° C | 89% | 1017.1 hPa | 0 mm | - | 70 W/m² | - |
| 1777442850 | 9.44° C | 89% | 1017.1 hPa | 0 mm | - | 70 W/m² | - |
| 1777442542 | 9.44° C | 89% | 1017.4 hPa | 0 mm | - | 54 W/m² | - |
| 1777442542 | 9.44° C | 89% | 1017.4 hPa | 0 mm | - | 54 W/m² | - |
| 1777442235 | 9.44° C | 90% | 1016.9 hPa | 0 mm | - | 43 W/m² | - |
| 1777441927 | 9.44° C | 90% | 1017 hPa | 0 mm | - | 38 W/m² | - |
| 1777441927 | 9.44° C | 90% | 1017 hPa | 0 mm | - | 38 W/m² | - |
| 1777441620 | 9.44° C | 90% | 1017.1 hPa | 0 mm | - | 34 W/m² | - |
| 1777441313 | 9.44° C | 91% | 1017 hPa | 0 mm | - | 32 W/m² | - |
| 1777441005 | 9.44° C | 91% | 1016.7 hPa | 0 mm | - | 29 W/m² | - |
| 1777440697 | 9.44° C | 91% | 1017.7 hPa | 0 mm | - | 29 W/m² | - |
| 1777440389 | 9.44° C | 92% | 1017.1 hPa | 0 mm | - | 27 W/m² | - |
| 1777440081 | 9.44° C | 92% | 1016.7 hPa | 0 mm | - | 24 W/m² | - |
| 1777440081 | 9.44° C | 92% | 1016.7 hPa | 0 mm | - | 24 W/m² | - |
| 1777439773 | 9.44° C | 93% | 1017.1 hPa | 0 mm | - | 18 W/m² | - |
* Rain latest hour (hover to see other rain measurements)
** Current wind speed in m/s (hover to see current wind gust speed)